Location: Namasale
(1.5000°N, 32.6167°E)
Time: 16:36:38
(UTC+00:00)

ASTRO E2 - Pass Details

Date: 09 April 2020
Orbit: 510 x 516 km, 31.4° (Epoch: 26 May)

Event Time Altitude Azimuth Distance (km) Brightness Sun altitude
Rises 16:18:38 0° 251° (WSW) 2,611 7.6 -6.6°
Reaches altitude 10° 16:21:00 10° 260° (W) 1,725 6.8 -7.2°
Maximum altitude 16:24:40 35° 327° (NNW) 830 4.2 -8.1°
Drops below altitude 10° 16:28:19 10° 35° (NE) 1,724 5.1 -9.0°
Sets 16:30:41 0° 44° (NE) 2,608 5.9 -9.6°
